Tracking 19846 objects as of 18-Sep-2019
HD Live streaming from Space Station
objects crossing your sky now

FENGYUN 1C DEB

Track FENGYUN 1C DEB now!
10-day predictions


NORAD ID: 32433
Int'l Code: 1999-025DAV
Perigee: 598.6 km
Apogee: 995.0 km
Inclination: 98.2 °
Period: 100.7 minutes
Semi major axis: 7167 km
RCS: 0.0139 m2 (small)
Launch date: May 10, 1999
Source: People's Republic of China (PRC)
Launch site: Taiyaun Space Center, China (TSC)

Note: This is SATELLITE DEBRIS
aabbcc
Your satellite tracking list
Your tracking list is empty




NASA's NSSDC Master Catalog

Two Line Element Set (TLE):
1 32433U 99025DAV 19258.28906190 +.00001116 +00000-0 +29476-3 0  9990
2 32433 098.2152 279.0203 0276543 244.3983 112.8388 14.30612348143244
Source of the keplerian elements: AFSPC